Simultaneous Nadir Overpasses (SNOs) Predictions

Prediction of SNOs between FY3D and METOP-C Satellite Orbit:

Table of predicted SNOs for the next 14.0 days since TLE Epoch: 12/5/2020
Index Date (FY3D) Time (FY3D) Lat,Lon (FY3D) SZA (FY3D ) Date (METOP-C) Time (METOP-C) Lat,Lon (METOP-C) SZA (METOP-C ) Distance(km) Time Diff (sec)
1 12/14/2020 23:22:24 -73.86, 0.67 82.83 12/14/2020 23:23:30 -73.78, 3.67 83.00 93.40 66
2 12/15/2020 00:13:05 73.67, 168.46 96.97 12/15/2020 00:14:13 73.66, 170.71 96.89 70.62 68
3 12/15/2020 01:03:47 -73.57, -24.00 83.14 12/15/2020 01:04:57 -73.51, -22.30 83.25 53.93 70
4 12/15/2020 01:54:29 73.42, 143.66 96.70 12/15/2020 01:55:40 73.39, 144.76 96.64 34.82 71
5 12/15/2020 02:45:11 -73.32, -48.80 83.40 12/15/2020 02:46:24 -73.24, -48.24 83.51 19.75 73
6 12/15/2020 03:35:53 73.17, 118.86 96.44 12/15/2020 03:37:06 73.17, 118.93 96.43 2.23 73
7 12/15/2020 04:26:37 -73.17, -73.83 83.56 12/15/2020 04:27:47 -73.17, -73.73 83.57 3.14 70
8 12/15/2020 05:17:22 73.17, 93.49 96.44 12/15/2020 05:18:28 73.15, 93.54 96.42 2.75 66
9 12/15/2020 06:08:06 -73.17, -99.20 83.56 12/15/2020 06:09:09 -73.15, -99.12 83.58 3.26 63
10 12/15/2020 06:58:50 73.11, 68.23 96.39 12/15/2020 06:59:50 73.13, 68.16 96.40 2.59 60
11 12/15/2020 07:49:34 -73.12,-124.46 83.61 12/15/2020 07:50:31 -73.13,-124.50 83.60 2.07 57
12 12/15/2020 08:40:19 73.11, 42.86 96.40 12/15/2020 08:41:12 73.11, 42.78 96.39 2.70 53
13 12/15/2020 09:31:03 -73.12,-149.83 83.60 12/15/2020 09:31:53 -73.11,-149.88 83.61 1.71 50
14 12/15/2020 10:21:48 73.11, 17.49 96.40 12/15/2020 10:22:33 73.14, 17.51 96.42 2.82 45
15 12/15/2020 11:12:32 -73.12,-175.20 83.60 12/15/2020 11:13:15 -73.09,-175.26 83.63 3.27 43
16 12/15/2020 12:03:16 73.11, -7.88 96.40 12/15/2020 12:03:54 73.12, -7.88 96.40 0.67 38
17 12/15/2020 12:54:00 -73.12, 159.43 83.60 12/15/2020 12:54:35 -73.12, 159.46 83.59 1.42 35
18 12/15/2020 13:44:45 73.11, -33.25 96.41 12/15/2020 13:45:16 73.10, -33.26 96.39 1.49 31
19 12/15/2020 14:35:29 -73.12, 134.06 83.59 12/15/2020 14:35:57 -73.10, 134.08 83.61 1.33 28
20 12/15/2020 15:26:14 73.11, -58.62 96.41 12/15/2020 15:26:37 73.13, -58.53 96.42 3.47 23
21 12/15/2020 16:16:58 -73.11, 108.69 83.59 12/15/2020 16:17:19 -73.09, 108.70 83.62 3.27 21
22 12/15/2020 17:07:43 73.11, -83.99 96.41 12/15/2020 17:07:59 73.11, -83.91 96.41 2.39 16
23 12/15/2020 17:58:27 -73.11, 83.32 83.59 12/15/2020 17:58:40 -73.12, 83.43 83.59 3.37 13
24 12/15/2020 18:49:12 73.11,-109.36 96.41 12/15/2020 18:49:21 73.09,-109.30 96.39 2.95 9
25 12/15/2020 19:39:56 -73.11, 57.95 83.59 12/15/2020 19:40:02 -73.10, 58.05 83.61 3.50 6
26 12/15/2020 20:30:40 73.06,-134.62 96.36 12/15/2020 20:30:43 73.07,-134.68 96.38 2.37 3
27 12/15/2020 21:21:24 -73.06, 32.69 83.64 12/15/2020 21:21:24 -73.08, 32.66 83.62 1.87 0
28 12/15/2020 22:12:09 73.06,-159.99 96.37 12/15/2020 22:12:05 73.05,-160.06 96.36 2.56 4
29 12/15/2020 23:02:53 -73.06, 7.32 83.63 12/15/2020 23:02:46 -73.06, 7.28 83.64 1.48 7
30 12/15/2020 23:53:38 73.06, 174.65 96.37 12/15/2020 23:53:26 73.08, 174.67 96.39 2.74 12
31 12/16/2020 00:44:22 -73.06, -18.04 83.63 12/16/2020 00:44:08 -73.04, -18.10 83.65 3.17 14
32 12/16/2020 01:35:07 73.06, 149.28 96.37 12/16/2020 01:34:48 73.06, 149.28 96.38 0.61 19
33 12/16/2020 02:25:51 -73.06, -43.41 83.63 12/16/2020 02:25:29 -73.07, -43.37 83.62 1.59 22
34 12/16/2020 03:16:36 73.06, 123.91 96.38 12/16/2020 03:16:10 73.04, 123.90 96.36 1.60 26
35 12/16/2020 04:07:20 -73.06, -68.78 83.63 12/16/2020 04:06:51 -73.05, -68.75 83.63 1.55 29
36 12/16/2020 04:58:05 73.06, 98.54 96.38 12/16/2020 04:57:31 73.07, 98.63 96.40 3.55 34
37 12/16/2020 05:48:49 -73.06, -94.15 83.62 12/16/2020 05:48:13 -73.03, -94.14 83.65 3.39 36
38 12/16/2020 06:39:34 73.06, 73.17 96.38 12/16/2020 06:38:53 73.06, 73.25 96.38 2.60 41
39 12/16/2020 07:30:17 -73.01,-119.41 83.67 12/16/2020 07:29:35 -73.01,-119.52 83.66 3.39 42
40 12/16/2020 08:21:03 73.06, 47.80 96.38 12/16/2020 08:20:15 73.04, 47.87 96.37 3.20 48
41 12/16/2020 09:11:46 -73.01,-144.78 83.67 12/16/2020 09:10:56 -73.04,-144.79 83.63 3.62 50
42 12/16/2020 10:02:31 73.01, 22.54 96.33 12/16/2020 10:01:37 73.02, 22.48 96.35 2.10 54
43 12/16/2020 10:53:15 -73.01,-170.15 83.67 12/16/2020 10:52:18 -73.02,-170.17 83.65 1.64 57
44 12/16/2020 11:44:00 73.01, -2.83 96.33 12/16/2020 11:42:59 73.00, -2.90 96.33 2.40 61
45 12/16/2020 12:34:44 -73.01, 164.48 83.67 12/16/2020 12:33:40 -73.00, 164.45 83.66 1.23 64
46 12/16/2020 13:25:29 73.00, -28.20 96.34 12/16/2020 13:24:20 73.03, -28.17 96.37 2.67 69
47 12/16/2020 14:16:13 -73.01, 139.11 83.66 12/16/2020 14:15:02 -72.98, 139.06 83.68 3.09 71
48 12/16/2020 15:06:57 72.95, -53.46 96.29 12/16/2020 15:05:43 72.96, -53.66 96.30 6.54 74
49 12/16/2020 15:57:39 -72.86, 114.06 83.82 12/16/2020 15:56:26 -72.86, 113.47 83.79 19.45 73
50 12/16/2020 16:48:21 72.70, -78.30 96.02 12/16/2020 16:47:10 72.68, -79.57 96.05 42.27 71
51 12/16/2020 17:39:03 -72.60, 89.22 84.08 12/16/2020 17:37:53 -72.59, 87.57 84.04 55.00 70
52 12/16/2020 18:29:44 72.39,-103.05 95.70 12/16/2020 18:28:37 72.41,-105.47 95.80 81.49 67
53 12/16/2020 19:20:27 -72.35, 64.36 84.35 12/16/2020 19:19:20 -72.32, 61.68 84.29 90.62 67



Historial Predications of SNOs between FY3D and METOP-C
